Location: Home
(42.5358°N, 72.7383°W)
Time: 09:01:11
(UTC-04:00)

A-11 Canister half - Pass Details

Date: 26 June 2022
Orbit: 1514 x 1685 km, 47.2° (Epoch: 15 August)

Event Time Altitude Azimuth Distance (km) Brightness Sun altitude
Rises 03:24:46 0° 277° (W) 4,918 11.4 -15.5°
Reaches altitude 10° 03:28:01 10° 280° (W) 3,915 10.9 -15.1°
Maximum altitude 03:38:01 68° 3° (N) 1,732 9.4 -14.0°
Drops below altitude 10° 03:47:39 10° 86° (E) 3,782 11.7 -12.9°
Sets 03:50:43 0° 90° (E) 4,744 12.2 -12.5°
